Terminal Aerodrome Forecast
Issued by NWS Sterling, VA

Home | Current Version | Previous Version | Text Only | Print | Product List | Glossary On
Versions: 1 2 3 4 5 6 7 8 9 10 11 12 13 14 15 16 17 18 19 20 21 22 23 24 25 26 27
000
FTUS41 KLWX 220500
TAFBWI
TAF
KBWI 220535Z 2206/2312 30009G17KT P6SM SCT100
     FM221400 33012G23KT P6SM FEW200
     FM230100 32006KT P6SM SKC=

USA.gov is the U.S. government's official web portal to all federal, state and local government web resources and services.